Simultaneous Nadir Overpasses (SNOs) Predictions

Prediction of SNOs between NOAA-19 and METOP-C Satellite Orbit:

Table of predicted SNOs for the next 14.0 days since TLE Epoch: 5/1/2021
Index Date (NOAA-19) Time (NOAA-19) Lat,Lon (NOAA-19) SZA (NOAA-19 ) Date (METOP-C) Time (METOP-C) Lat,Lon (METOP-C) SZA (METOP-C ) Distance(km) Time Diff (sec)
1 05/03/2021 17:28:37 80.48, -54.28 65.77 05/03/2021 17:29:40 80.49, -54.27 65.81 1.34 63
2 05/03/2021 18:19:36 -80.48, 113.02 114.24 05/03/2021 18:20:21 -80.48, 112.85 114.24 3.10 45
3 05/03/2021 19:10:37 80.47, -79.65 65.76 05/03/2021 19:11:02 80.48, -79.75 65.77 1.99 25
4 05/03/2021 20:01:36 -80.47, 87.65 114.25 05/03/2021 20:01:42 -80.49, 87.70 114.23 2.22 6
5 05/03/2021 20:52:38 80.48,-105.36 65.73 05/03/2021 20:52:24 80.47,-105.22 65.73 2.83 14
6 05/03/2021 21:43:36 -80.47, 62.27 114.27 05/03/2021 21:43:04 -80.48, 62.22 114.27 1.78 32
7 05/03/2021 22:34:38 80.48,-130.72 65.72 05/03/2021 22:33:46 80.46,-130.70 65.68 1.92 52
8 05/03/2021 23:25:36 -80.46, 36.90 114.28 05/03/2021 23:24:26 -80.47, 36.75 114.31 3.05 70
9 05/14/2021 19:32:29 -80.49, 94.88 117.12 05/14/2021 19:33:43 -80.50, 94.76 117.10 2.25 74
10 05/14/2021 20:23:33 80.50, -97.99 62.87 05/14/2021 20:24:24 80.49, -98.05 62.87 1.89 51
11 05/14/2021 21:14:29 -80.49, 69.51 117.13 05/14/2021 21:15:04 -80.51, 69.61 117.09 2.98 35
12 05/14/2021 22:05:33 80.49,-123.36 62.86 05/14/2021 22:05:45 80.50,-123.20 62.88 3.02 12
13 05/14/2021 22:56:29 -80.48, 44.13 117.14 05/14/2021 22:56:26 -80.50, 44.13 117.13 1.85 3
14 05/14/2021 23:47:33 80.49,-148.73 62.85 05/14/2021 23:47:07 80.49,-148.68 62.85 0.92 26
15 05/15/2021 00:38:29 -80.48, 18.76 117.15 05/15/2021 00:37:48 -80.49, 18.65 117.17 2.42 41
16 05/15/2021 01:29:33 80.48,-174.10 62.84 05/15/2021 01:28:29 80.48,-174.16 62.81 1.19 64



Historial Predications of SNOs between NOAA-19 and METOP-C
